Weather History for Valley, United Kingdom

Change the Weather History Date:

Sunday, October 14, 2012

  Actual Average Record
Temperature  
Mean Temperature 48 °F -  
Max Temperature 53 °F 55 °F 64 °F (2006)
Min Temperature 42 °F 45 °F 41 °F (1997)
Degree Days  
Heating Degree Days 18    
Moisture  
Dew Point 43 °F    
Average Humidity 83    
Maximum Humidity 93    
Minimum Humidity 71    
Precipitation  
Precipitation 0.00 in 0.12 in - ()
Sea Level Pressure  
Sea Level Pressure 29.62 in    
Wind  
Wind Speed 5 mph ()    
Max Wind Speed 10 mph    
Max Gust Speed -    
Visibility 6.4 miles    
Events      
Averages and records for this station are not official NWS values.
T = Trace of Precipitation, MM = Missing Value Source: Averaged Metar Reports

Daily Weather History Graph

Daily Weather History Graph

Search for Another Location

Airport:

Trip Planner

Search our weather history database for the weather conditions in past years. The results will help you decide how hot, cold, wet, or windy it might be!

Date:

Astronomy

Oct. 14, 2012 Rise Set
Actual Time 7:43 AM BST 6:23 PM BST
Civil Twilight 7:08 AM BST 6:58 PM BST
Nautical Twilight 6:28 AM BST 7:38 PM BST
Astronomical Twilight 5:47 AM BST 8:19 PM BST
Moon 6:21 AM BST (10/14) 5:34 PM BST (10/14)
Length of Visible Light 11h 50m
Length of Day
10h 40m
Waning Crescent, 2% of the Moon is Illuminated
Oct 14
Waning Crescent
Oct 15
New
Oct 22
First Quarter
Oct 29
Full
Nov 7
Last Quarter

Hourly Weather History & Observations

Time (BST) Temp. Windchill Dew Point Humidity Pressure Visibility Wind Dir Wind Speed Gust Speed Precip Events Conditions
12:50 AM 46.4 °F 42.4 °F 41.0 °F 81% 29.62 in 6.2 mi SE 8.1 mph - N/A   Scattered Clouds
1:50 AM 42.8 °F 38.6 °F 41.0 °F 93% 29.62 in 6.2 mi SSE 6.9 mph - N/A   Partly Cloudy
3:50 AM 45 °F - 41 °F 82% 29.61 in 31 mi SSE 4.6 mph - -   Mostly Cloudy
3:50 AM 44.6 °F 42.2 °F 41.0 °F 87% 29.59 in 6.2 mi SSE 4.6 mph - N/A   Mostly Cloudy
4:50 AM 46.4 °F 44.3 °F 42.8 °F 87% 29.59 in 6.2 mi South 4.6 mph - N/A   Scattered Clouds
5:50 AM 48.2 °F - 42.8 °F 82% 29.59 in 6.2 mi SE 4.6 mph - N/A   Scattered Clouds
6:50 AM 49 °F - 44 °F 75% 29.61 in 31 mi SSE 5.8 mph - -  
6:50 AM 48.2 °F - 42.8 °F 82% 29.59 in 6.2 mi SSE 5.8 mph - N/A   Mostly Cloudy
7:50 AM 46.4 °F 43.5 °F 42.8 °F 87% 29.59 in 6.2 mi SE 5.8 mph - N/A   Mostly Cloudy
8:50 AM 48.2 °F - 42.8 °F 82% 29.59 in 6.2 mi North 3.5 mph - N/A   Mostly Cloudy
9:50 AM 48 °F - 43 °F 77% 29.63 in 28 mi North 2.3 mph - -   Mostly Cloudy
9:50 AM 48.2 °F - 42.8 °F 82% 29.62 in 6.2 mi North 2.3 mph - N/A   Scattered Clouds
10:50 AM 51.8 °F - 42.8 °F 71% 29.62 in 6.2 mi West 4.6 mph - N/A   Mostly Cloudy
11:50 AM 50.0 °F - 44.6 °F 82% 29.62 in 6.2 mi West 10.4 mph - N/A   Partly Cloudy
12:50 PM 51 °F - 45 °F 72% 29.63 in 10 mi West 8.1 mph - -   Mostly Cloudy
12:50 PM 50.0 °F - 44.6 °F 82% 29.62 in 6.2 mi West 8.1 mph - N/A   Mostly Cloudy
1:50 PM 51.8 °F - 44.6 °F 76% 29.62 in 6.2 mi SW 6.9 mph - N/A   Scattered Clouds
2:50 PM 50.0 °F - 44.6 °F 82% 29.62 in 6.2 mi West 5.8 mph - N/A   Scattered Clouds
3:50 PM 51 °F - 44 °F 71% 29.63 in 31 mi SSW 5.8 mph - -   Mostly Cloudy
3:50 PM 50.0 °F - 44.6 °F 82% 29.62 in 6.2 mi SSW 5.8 mph - N/A   Mostly Cloudy
4:50 PM 50.0 °F - 44.6 °F 82% 29.62 in 6.2 mi WSW 6.9 mph - N/A   Mostly Cloudy
5:50 PM 50.0 °F - 42.8 °F 76% 29.62 in 6.2 mi SSE 3.5 mph - N/A   Mostly Cloudy
6:50 PM 48 °F - 45 °F 84% 29.64 in 31 mi ESE 5.8 mph - -   Mostly Cloudy
6:50 PM 48.2 °F - 44.6 °F 87% 29.62 in 6.2 mi ESE 5.8 mph - N/A   Mostly Cloudy
7:50 PM 48.2 °F - 44.6 °F 87% 29.62 in 6.2 mi ESE 4.6 mph - N/A   Mostly Cloudy
8:50 PM 46.4 °F 44.3 °F 44.6 °F 93% 29.62 in 6.2 mi East 4.6 mph - N/A   Mostly Cloudy
9:50 PM 44 °F - 42 °F 92% 29.64 in 22 mi East 5.8 mph - -   Scattered Clouds
9:50 PM 44.6 °F 41.4 °F 42.8 °F 93% 29.62 in 6.2 mi East 5.8 mph - N/A   Partly Cloudy
10:50 PM 44.6 °F 41.4 °F 42.8 °F 93% 29.62 in 6.2 mi East 5.8 mph - N/A   Mostly Cloudy
11:50 PM 44.6 °F 43.1 °F 42.8 °F 93% 29.62 in 6.2 mi NE 3.5 mph - N/A   Overcast